Dewpoint
1 6 9 10 10 11 12 13 13 13 13 13 12 12 12 12 12 13 13 13 13 12 11 11 10 9 9 8 8 7 7 6 6 6 6 6 5 5 5 5 5 5 5
-12 -11 -6 2 7 9 9 10 11 13 12 13 12 12 12 12 12 12 13 12 12 12 12 12 11 10 10 9 9 9 8 8 7 6 7 6 6 6 5 5 5 5 5
-3 -12 -14 -13 -9 -2 2 2 6 10 11 12 12 12 12 12 12 12 12 12 12 12 12 12 12 11 11 10 10 9 9 9 7 7 6 6 6 5 5 6 5 5 4
-5 -2 -3 -9 -11 -11 -8 -5 -3 -1 3 7 9 11 12 12 12 12 12 12 12 12 12 12 12 12 11 11 10 10 10 9 9 8 7 6 6 5 6 5 5 5 4
-6 -7 -5 -3 -4 -8 -7 -8 -7 -4 -3 0 4 6 10 11 12 12 12 12 12 12 12 12 12 12 12 12 11 11 10 9 9 8 8 7 6 6 5 5 5 5 4
-10 -13 -11 -6 -7 -7 -4 -6 -7 -8 -6 -6 1 4 5 8 11 11 11 11 11 12 12 12 12 11 11 11 11 11 11 11 9 8 7 7 6 7 5 4 4 3 2
-9 -9 -10 -8 -9 -13 -14 -5 -4 -6 -9 -9 -4 3 6 7 8 10 11 11 11 11 12 11 11 12 12 11 11 11 10 10 9 9 8 8 7 7 6 4 3 3 3
-9 -9 -9 -9 -9 -9 -12 -12 -10 -7 -7 -6 -9 -2 4 5 7 9 10 10 11 10 10 11 11 11 11 11 11 11 9 8 8 7 7 8 7 7 7 6 5 3 2
-10 -10 -8 -9 -9 -7 -7 -7 -5 -4 -5 -4 -2 -3 2 4 4 5 8 9 10 10 10 10 10 10 10 10 9 9 9 8 8 7 7 6 6 6 5 4 2 2 1
-10 -10 -9 -9 -9 -9 -7 -5 -7 -3 -3 -3 -1 1 4 4 4 4 5 6 9 10 10 10 10 10 10 9 9 9 8 8 8 7 6 5 5 5 4 4 4 3 1
-8 -9 -10 -10 -9 -8 -7 -6 -7 -6 -2 -2 -3 0 4 5 4 4 5 5 6 8 9 9 9 9 9 8 8 8 7 7 7 6 6 5 4 3 3 3 2 2 1
-5 -4 -6 -7 -8 -9 -8 -8 -7 -6 -6 -6 -2 2 4 5 3 3 4 5 6 7 7 7 8 7 7 7 6 6 6 5 5 5 4 4 3 2 2 2 1 1 0
-5 -4 -3 -3 -5 -6 -6 -6 -6 -6 -6 -8 -2 3 4 4 4 4 4 5 5 6 6 5 5 6 5 5 5 5 4 4 4 3 3 2 2 2 1 0 -1 -1 -1
-8 -10 -10 -6 -3 -4 -5 -6 -5 -6 -6 -7 -3 2 3 4 4 4 5 5 5 5 5 4 4 4 4 4 3 2 2 2 2 2 1 1 0 0 -0 -0 -1 -2 -2
-6 -7 -7 -7 -7 -4 -2 -4 -5 -5 -5 -7 -2 2 3 3 4 4 3 4 4 3 4 3 3 2 2 1 1 1 1 0 0 0 -0 -0 -0 -1 -1 -1 -2 -2 -3
-5 -5 -4 -5 -5 -4 -3 -1 -4 -4 -5 -8 1 2 3 3 2 2 2 2 2 2 2 2 2 1 1 0 0 -0 -0 -0 -0 -1 -1 -1 -1 -1 -1 -2 -2 -3 -3
-5 -5 -5 -5 -3 -2 -2 -1 -2 -3 -4 -7 0 2 2 2 2 2 2 2 2 2 2 1 1 0 0 -0 -0 -0 -0 -1 -1 -1 -0 -1 -1 -1 -1 -2 -2 -3 -3
-5 -5 -4 -5 -4 -3 -2 -1 -1 -2 -4 -5 0 1 1 1 1 1 1 1 1 1 1 1 0 0 0 0 -0 -0 -0 -1 -1 -1 -1 -1 -1 -1 -1 -1 -2 -3 -3
-4 -4 -3 -4 -4 -3 -3 -2 -1 -2 -3 -1 -0 -1 0 0 0 0 0 1 1 1 1 1 -0 -0 -0 -0 -0 -0 -0 -0 -0 -1 -1 -1 -1 -1 -1 -1 -1 -2 -2
-4 -3 -4 -5 -4 -3 -2 -2 -2 -2 -1 -1 -1 -0 -0 -0 -0 -0 -0 0 0 0 -0 -0 -0 -0 -1 -1 -2 -2 -2 -1 -1 -1 -1 -2 -2 -2 -2 -2 -2 -2 -3
-4 -3 -4 -3 -3 -2 -2 -2 -2 -2 -2 -2 -1 -1 -0 -0 -0 -0 -1 -0 -0 -0 -0 -0 -1 -1 -1 -1 -1 -2 -2 -2 -2 -2 -2 -2 -2 -2 -2 -3 -3 -3 -3
-5 -4 -4 -3 -3 -3 -3 -4 -3 -3 -3 -2 -2 -2 -1 -1 -1 -1 -1 -1 -1 -1 -1 -1 -1 -1 -1 -2 -2 -2 -2 -2 -3 -3 -3 -3 -3 -3 -3 -3 -4 -4 -4
-4 -5 -5 -5 -5 -5 -4 -4 -4 -4 -3 -3 -2 -2 -2 -1 -1 -1 -1 -2 -2 -2 -2 -2 -2 -3 -3 -4 -5 -5 -6 -6 -5 -4 -4 -4 -4 -4 -5 -5 -5 -5 -6
-4 -4 -4 -4 -4 -4 -4 -4 -4 -3 -3 -3 -3 -2 -2 -3 -3 -3 -3 -3 -3 -4 -5 -6 -7 -8 -8 -9 -9 -9 -9 -9 -9 -8 -7 -6 -6 -6 -6 -7 -7 -7 -7
-4 -4 -4 -4 -5 -5 -5 -5 -5 -5 -5 -4 -3 -4 -4 -4 -4 -5 -6 -7 -7 -8 -8 -8 -9 -9 -9 -9 -9 -9 -9 -9 -9 -9 -9 -9 -8 -8 -8 -7 -7 -8 -8
-4 -4 -4 -4 -5 -5 -5 -5 -5 -5 -5 -5 -6 -6 -6 -6 -6 -6 -7 -6 -7 -7 -8 -8 -8 -8 -8 -8 -8 -8 -8 -8 -8 -9 -8 -8 -8 -8 -8 -8 -8 -8 -9
Wind_Speed
9 6 2 5 5 7 11 12 21 36 36 38 35 38 43 46 52 60 57 58 59 61 61 63 64 62 59 60 60 53 49 47 50 44 45 44 51 53 61 59 58 55 53
9 10 8 4 4 6 6 13 11 10 3 38 32 38 39 43 46 52 59 57 58 58 59 62 63 61 64 61 58 56 59 58 56 48 49 46 45 48 50 61 58 55 52
9 10 9 10 8 5 6 9 11 20 25 22 8 38 40 38 43 47 50 54 57 53 56 57 59 60 62 63 63 63 59 56 55 54 45 44 42 48 51 52 59 58 53
9 9 10 9 9 10 13 11 9 11 14 16 17 19 28 42 36 40 50 56 54 53 53 56 56 59 59 58 61 63 63 62 60 58 55 49 47 51 51 53 56 55 56
14 11 11 11 11 10 11 15 16 15 16 17 18 21 25 26 43 52 53 57 60 55 47 48 49 48 47 56 57 57 59 62 61 57 58 55 48 50 55 54 56 54 55
13 11 10 10 14 14 15 14 17 20 21 19 19 19 21 27 25 44 44 45 42 44 51 55 47 42 46 45 54 53 55 57 59 57 57 58 56 59 55 56 55 52 51
17 17 12 11 14 14 15 17 19 21 20 21 19 20 21 23 27 27 34 47 44 40 48 46 55 42 46 58 53 51 56 56 54 53 56 59 58 57 57 54 56 59 56
18 20 19 18 18 18 16 15 16 19 22 22 21 23 24 23 23 27 29 32 44 46 41 52 48 43 40 50 54 49 54 52 53 51 49 50 47 47 47 49 52 52 50
22 23 23 23 24 23 22 18 19 21 20 22 23 24 26 27 23 24 28 30 33 35 46 47 46 38 39 39 44 38 39 45 51 48 46 47 46 42 42 47 46 46 47
28 26 25 28 27 25 26 23 23 24 21 22 24 25 25 27 25 25 27 29 32 31 32 37 46 38 38 34 32 32 38 33 33 44 45 45 44 42 39 37 41 46 46
29 29 30 29 30 27 26 31 29 26 27 25 24 25 26 23 20 23 23 26 28 27 30 32 32 31 30 28 27 28 30 25 26 33 41 44 45 43 39 36 35 38 47
25 26 30 28 30 32 33 33 34 30 32 30 26 23 24 22 20 18 19 23 24 25 26 25 25 24 24 24 26 24 23 20 24 27 34 39 43 42 38 34 31 36 37
33 32 28 25 32 32 36 34 35 34 33 32 26 22 22 21 19 16 15 21 22 22 21 18 19 20 20 19 19 19 18 21 23 25 28 33 37 36 32 27 28 32 34
45 47 47 42 33 30 36 38 38 36 34 30 25 23 23 23 20 19 20 21 20 21 21 19 18 18 18 18 18 17 18 18 18 19 23 25 28 27 24 24 28 29 30
43 46 48 49 49 42 33 39 39 35 31 28 23 22 21 23 23 22 21 20 20 20 20 20 18 19 20 20 18 16 16 15 15 15 17 23 24 23 23 23 24 25 29
37 38 40 43 43 44 37 35 38 35 33 30 20 21 23 21 19 19 19 18 19 21 22 23 24 23 22 21 19 18 17 16 16 17 18 19 22 23 23 23 23 25 28
40 40 37 36 34 35 39 31 33 30 27 21 19 21 17 16 17 18 18 20 21 23 24 25 25 25 24 23 22 19 18 16 16 17 17 19 21 20 20 23 22 25 29
36 37 38 40 36 34 37 34 29 24 22 20 18 15 16 22 22 23 25 24 25 22 23 25 25 23 22 20 19 19 18 17 15 14 14 16 17 19 21 20 21 25 27
34 37 37 35 36 34 33 35 32 25 22 23 21 22 26 25 24 23 23 23 22 22 22 23 22 21 22 20 20 19 17 17 16 15 14 14 17 17 16 17 19 22 24
26 19 10 21 26 32 30 29 29 29 28 30 34 35 34 31 28 26 22 21 22 21 22 21 20 19 18 18 18 17 17 17 16 15 15 16 15 14 15 16 19 22 25
13 8 3 12 24 28 26 25 29 30 33 39 39 37 35 32 30 27 24 21 21 21 21 20 19 16 15 14 11 12 13 12 11 13 16 16 15 15 15 16 17 18 20
7 1 6 13 17 20 25 28 32 36 40 42 37 33 30 28 26 24 21 20 18 17 16 15 14 12 12 14 14 13 12 13 15 16 16 15 15 15 15 16 17 17 17
11 10 13 17 20 24 26 29 32 34 35 35 32 29 26 25 23 22 20 19 17 17 16 15 14 15 14 12 10 10 10 12 13 15 16 17 18 18 19 19 19 19 19
16 16 17 17 18 20 22 24 27 29 31 29 27 25 23 21 21 21 20 19 18 16 15 15 15 13 11 11 11 12 12 12 12 13 13 14 15 17 17 17 19 19 18
15 16 17 18 18 20 22 23 25 26 25 23 22 21 21 21 22 21 19 18 17 16 15 14 13 12 10 10 10 9 9 9 9 10 11 12 13 13 15 15 16 16 16
15 16 17 16 17 18 21 22 23 23 23 22 22 21 21 21 20 19 18 16 14 13 12 11 9 8 7 6 5 6 6 7 8 9 10 11 12 12 11 12 13 14 16
Wind_Direction
10 13 85 138 104 172 188 216 245 233 242 235 237 241 238 237 237 237 239 239 238 236 234 232 229 230 231 235 234 234 235 236 241 246 250 248 239 235 237 235 238 242 238
15 16 13 347 274 238 263 269 252 224 284 220 231 233 235 236 237 239 236 241 241 241 241 239 237 236 233 232 236 236 237 238 240 237 245 243 241 240 238 235 235 235 233
345 357 4 349 343 322 270 293 295 265 273 275 298 226 228 227 232 235 238 240 242 242 244 245 242 240 239 237 237 239 239 238 234 238 238 242 241 237 232 230 234 235 231
330 317 319 337 346 326 313 306 309 297 282 269 273 264 245 235 232 237 240 236 237 240 243 246 245 244 243 243 243 243 242 241 239 239 238 237 234 230 229 230 229 231 228
342 353 332 315 298 315 315 307 303 305 303 291 273 266 256 254 243 244 241 238 234 237 236 239 241 244 252 249 249 246 245 241 243 235 234 233 227 227 225 229 232 234 229
319 331 329 331 322 320 291 294 298 303 307 301 289 275 262 247 255 248 248 239 234 233 242 244 242 242 248 253 254 255 254 250 243 238 234 234 233 242 234 227 225 215 215
324 329 318 314 311 310 303 303 296 290 296 300 296 288 278 265 251 248 253 250 256 249 250 246 247 247 253 251 249 253 254 255 253 246 243 243 242 244 244 229 224 229 224
308 307 311 310 304 307 311 297 294 290 284 287 290 287 284 275 268 257 249 250 251 254 255 245 255 253 256 255 251 250 247 245 245 238 245 255 259 254 254 257 242 227 223
290 290 289 299 302 297 298 296 296 293 290 286 285 283 278 273 273 269 259 248 250 251 252 250 256 257 258 267 258 264 256 247 245 248 248 250 251 252 248 234 222 225 220
288 284 285 284 285 291 289 288 294 294 295 295 280 278 274 269 272 269 261 254 249 249 243 243 250 256 254 255 259 260 257 257 257 244 240 240 241 242 244 247 244 235 224
299 294 286 284 282 279 275 279 288 294 296 297 289 278 275 270 263 267 265 253 247 248 253 245 241 242 243 240 238 240 247 253 251 247 242 237 235 237 237 235 240 238 228
285 291 285 284 277 276 272 276 277 284 291 296 291 283 279 274 271 264 264 262 251 247 249 249 243 238 233 225 222 225 228 228 235 234 236 234 230 229 229 229 234 236 242
288 282 282 283 275 275 269 265 268 277 286 292 286 275 274 280 277 264 258 248 247 248 242 235 227 219 218 216 214 213 216 219 219 223 222 226 224 226 223 224 226 231 233
287 282 277 273 272 269 262 261 264 270 279 287 282 270 271 270 272 259 245 239 230 225 215 211 208 205 202 198 185 189 197 202 206 211 211 213 213 210 219 226 222 218 222
287 278 273 270 266 262 259 251 259 264 273 284 273 265 263 264 260 253 237 219 207 205 195 187 183 177 172 171 173 176 176 181 180 185 197 197 199 204 203 208 211 213 217
285 278 274 270 264 261 255 247 249 255 266 279 260 261 262 259 242 237 224 209 194 185 183 174 171 173 172 163 163 164 165 168 176 183 189 192 190 194 194 199 203 212 215
286 276 266 260 256 248 243 239 242 249 260 278 256 255 246 242 203 184 179 175 168 167 169 164 161 163 159 152 152 152 149 155 161 170 170 178 182 189 195 198 194 207 216
293 284 272 257 249 243 242 233 236 239 256 272 247 229 200 176 169 161 161 161 160 164 158 156 156 156 153 150 153 154 155 158 159 161 170 181 186 189 190 192 198 205 213
302 294 281 261 244 234 233 231 232 234 242 242 213 185 175 171 165 169 173 170 162 163 164 165 162 160 155 157 160 161 163 161 165 170 171 187 197 194 187 194 205 213 216
314 318 276 236 223 221 222 223 225 221 219 207 185 177 170 172 168 169 170 170 167 169 166 160 157 158 156 158 160 162 161 167 173 176 190 198 198 195 199 207 215 219 220
333 327 238 204 206 212 211 212 208 203 192 183 177 171 170 167 165 166 168 173 170 166 166 165 160 159 162 162 159 167 173 175 179 193 201 203 203 203 206 214 221 222 224
3 23 185 187 190 189 187 188 186 182 179 175 167 163 162 159 160 163 163 163 162 163 165 168 170 178 186 190 190 191 191 198 201 203 208 212 216 219 221 224 225 226 228
69 100 127 139 149 154 157 162 164 166 164 161 156 153 156 158 161 162 165 166 169 173 174 177 184 189 193 192 184 191 202 205 207 210 212 212 213 217 221 224 226 229 230
66 84 98 108 120 130 136 142 147 148 148 146 146 149 155 162 166 169 170 172 169 167 171 175 179 183 179 177 181 187 193 194 197 202 207 206 206 212 215 214 219 224 227
70 83 90 94 103 115 125 130 136 141 139 137 139 145 151 154 157 158 157 156 158 161 161 159 161 162 164 169 173 177 182 188 194 199 202 204 207 211 212 213 216 217 222
68 73 78 87 96 104 111 116 121 124 127 132 136 138 143 148 151 152 153 152 152 151 150 150 147 146 151 156 169 191 200 204 206 206 208 210 209 213 213 213 214 221 224
Height
1389 1390 1390 1390 1394 1397 1400 1404 1407 1407 1406 1408 1414 1421 1426 1431 1436 1439 1445 1450 1454 1458 1463 1467 1471 1476 1478 1483 1488 1491 1494 1497 1496 1500 1503 1508 1511 1514 1516 1519 1519 1524 1529
1385 1388 1390 1393 1393 1394 1396 1402 1401 1399 1396 1390 1394 1403 1413 1419 1424 1429 1434 1438 1442 1446 1451 1456 1459 1465 1469 1472 1475 1480 1480 1486 1488 1490 1494 1496 1499 1503 1506 1508 1513 1516 1522
1386 1385 1386 1388 1390 1393 1397 1396 1391 1393 1391 1389 1374 1386 1391 1401 1410 1418 1422 1426 1429 1434 1439 1443 1448 1452 1456 1460 1463 1467 1470 1474 1479 1481 1482 1486 1491 1492 1492 1501 1506 1508 1512
1391 1388 1389 1391 1390 1391 1392 1391 1394 1398 1398 1396 1390 1394 1392 1385 1396 1406 1408 1406 1409 1415 1422 1429 1435 1437 1441 1448 1451 1455 1460 1462 1467 1472 1472 1475 1479 1481 1487 1490 1494 1497 1504
1391 1386 1388 1388 1391 1390 1390 1391 1390 1391 1392 1393 1393 1393 1393 1396 1397 1398 1398 1400 1400 1406 1405 1413 1418 1424 1430 1435 1438 1441 1447 1449 1453 1457 1459 1463 1467 1471 1473 1478 1483 1486 1497
1392 1387 1385 1386 1387 1387 1388 1388 1388 1389 1389 1389 1391 1391 1391 1391 1392 1392 1396 1398 1372 1386 1395 1403 1408 1410 1416 1423 1425 1429 1432 1435 1438 1443 1446 1450 1453 1459 1465 1468 1476 1478 1484
1390 1385 1386 1385 1385 1384 1382 1383 1383 1383 1386 1385 1385 1386 1385 1386 1385 1383 1384 1385 1390 1388 1387 1397 1402 1400 1405 1401 1411 1417 1420 1422 1427 1428 1433 1437 1444 1449 1455 1461 1464 1467 1472
1385 1386 1385 1385 1384 1380 1377 1379 1379 1378 1378 1380 1380 1379 1379 1381 1381 1379 1379 1381 1378 1380 1387 1384 1388 1396 1393 1399 1405 1403 1409 1418 1422 1425 1424 1431 1437 1442 1447 1451 1455 1462 1469
1382 1382 1380 1377 1379 1376 1377 1375 1374 1376 1377 1373 1373 1372 1374 1375 1373 1373 1375 1373 1373 1377 1379 1381 1390 1385 1386 1392 1394 1394 1403 1407 1415 1417 1419 1424 1429 1434 1441 1447 1450 1455 1461
1376 1374 1373 1373 1371 1371 1371 1369 1368 1373 1369 1367 1368 1369 1368 1367 1364 1365 1369 1367 1367 1369 1371 1374 1378 1376 1382 1386 1388 1391 1397 1399 1403 1406 1412 1418 1423 1427 1433 1438 1442 1448 1452
1367 1365 1365 1363 1361 1364 1366 1366 1361 1362 1363 1362 1361 1363 1364 1361 1359 1359 1362 1361 1360 1359 1362 1365 1367 1372 1375 1376 1379 1382 1388 1393 1396 1401 1405 1410 1415 1421 1425 1429 1434 1440 1441
1359 1358 1356 1353 1355 1355 1356 1356 1356 1354 1356 1353 1354 1353 1355 1355 1351 1352 1353 1352 1354 1353 1356 1357 1360 1364 1369 1370 1370 1372 1378 1381 1387 1392 1398 1403 1408 1414 1420 1425 1430 1435 1437
1351 1350 1348 1345 1347 1348 1348 1347 1349 1347 1346 1347 1346 1345 1347 1346 1346 1344 1344 1349 1349 1348 1352 1354 1355 1357 1360 1364 1365 1367 1371 1377 1380 1386 1387 1396 1404 1409 1416 1422 1427 1432 1435
1340 1336 1336 1336 1337 1337 1338 1338 1339 1339 1338 1338 1338 1338 1338 1340 1341 1341 1341 1341 1342 1345 1347 1350 1351 1353 1356 1359 1362 1365 1369 1374 1378 1383 1385 1391 1399 1407 1413 1418 1426 1427 1432
1325 1321 1321 1321 1323 1324 1326 1329 1329 1328 1328 1329 1330 1331 1331 1333 1335 1337 1337 1335 1336 1340 1342 1345 1349 1352 1354 1355 1361 1366 1369 1375 1377 1380 1387 1392 1397 1402 1408 1415 1420 1425 1431
1313 1309 1306 1304 1306 1306 1311 1314 1316 1318 1318 1320 1322 1324 1326 1328 1330 1330 1333 1332 1334 1334 1342 1340 1345 1351 1356 1356 1361 1366 1369 1374 1379 1383 1387 1391 1395 1402 1405 1410 1416 1425 1431
1298 1295 1293 1292 1294 1294 1295 1300 1303 1306 1310 1313 1317 1319 1320 1323 1325 1326 1329 1332 1334 1335 1337 1344 1347 1353 1356 1357 1363 1368 1371 1378 1383 1385 1388 1392 1393 1398 1404 1410 1409 1420 1430
1282 1278 1275 1275 1278 1281 1283 1289 1294 1297 1303 1307 1312 1313 1316 1321 1322 1325 1329 1333 1336 1340 1343 1345 1352 1355 1358 1360 1364 1368 1374 1380 1383 1387 1392 1396 1398 1400 1402 1404 1410 1419 1428
1269 1261 1256 1258 1263 1270 1275 1280 1285 1290 1296 1303 1307 1311 1314 1319 1321 1326 1330 1335 1337 1341 1343 1347 1353 1356 1357 1361 1367 1370 1373 1376 1382 1388 1391 1398 1403 1401 1398 1404 1412 1419 1425
1260 1252 1244 1247 1255 1262 1268 1273 1278 1284 1290 1297 1301 1306 1310 1315 1319 1323 1329 1335 1340 1345 1347 1351 1355 1358 1359 1363 1367 1370 1371 1376 1381 1384 1393 1401 1400 1397 1399 1405 1411 1417 1421
1261 1255 1252 1252 1256 1260 1265 1269 1274 1279 1285 1291 1298 1304 1308 1311 1316 1323 1330 1339 1343 1345 1350 1353 1355 1358 1362 1365 1365 1370 1374 1375 1378 1386 1395 1397 1396 1397 1400 1406 1410 1415 1418
1266 1262 1260 1259 1260 1262 1266 1270 1274 1279 1285 1291 1297 1302 1307 1312 1319 1327 1334 1339 1343 1347 1351 1353 1355 1359 1362 1368 1370 1371 1370 1374 1380 1387 1391 1393 1394 1397 1401 1405 1409 1412 1416
1275 1272 1269 1268 1267 1268 1270 1274 1277 1281 1287 1293 1298 1303 1310 1316 1323 1329 1335 1341 1345 1347 1349 1353 1358 1362 1365 1365 1364 1366 1369 1374 1379 1383 1385 1388 1391 1395 1399 1403 1406 1409 1412
1286 1282 1279 1277 1276 1277 1278 1280 1283 1287 1292 1297 1302 1308 1315 1321 1327 1333 1336 1341 1344 1348 1352 1354 1357 1360 1360 1361 1363 1367 1371 1374 1377 1380 1383 1385 1389 1392 1395 1398 1402 1405 1408
1294 1291 1288 1287 1286 1286 1287 1289 1292 1296 1300 1304 1309 1315 1320 1325 1330 1334 1338 1342 1347 1350 1352 1354 1355 1356 1358 1361 1365 1368 1371 1373 1376 1378 1381 1384 1386 1389 1392 1395 1397 1400 1404
1302 1299 1298 1297 1296 1295 1295 1297 1300 1303 1307 1312 1316 1321 1325 1330 1334 1338 1341 1344 1346 1349 1350 1352 1353 1355 1359 1362 1366 1369 1371 1373 1374 1376 1379 1382 1385 1387 1389 1392 1395 1398 1401